Volver al catálogo

STARLINK-34095

ActivoComunicacionesVLEO
NORAD 63809·PAYLOAD·🇺🇸 United States

Lanzado May 4, 2025 desde Cape Canaveral Space Force Station

Loading…

Próximos Pases (próximas 24 horas)

TLE

ActualizadoSource: CelesTrak SupGP

Época: Sep 15, 2026, 03:50 UTC

1 63809C 25092F   26258.16020833 -.00003049  00000+0 -11046-3 0  2580
2 63809  43.0004 182.9311 0001375 276.9355 203.6259 15.27573912    17

Sigue STARLINK-34095 en tiempo real con AllMySat

Download on the App Store